GW2021 Weather Reports


time (UTC)temp
F
wind
direction
speed
knots
gust
knots
rain 1hr
in
rain 24hr
in
rain mn
in
humidity
%
barometer
mb
20260504070313 44 157 0.0 0.0 0.00 0.00 0.00 61 1014.5
20260504050612 46 157 0.0 0.0 0.00 0.00 0.00 57 1014.7
20260504045615 46 157 0.0 0.0 0.00 0.00 0.00 57 1014.8
20260504043614 46 157 0.0 0.0 0.00 0.00 0.00 56 1014.8
20260504042613 47 157 0.0 0.0 0.00 0.00 0.00 54 1014.8
20260504040612 47 157 0.0 0.0 0.00 0.00 0.00 52 1015.0
20260504035624 47 157 0.0 0.0 0.00 0.00 0.00 52 1014.7
20260504034622 47 157 0.0 0.0 0.00 0.00 0.00 52 1014.7
20260504033623 47 157 0.0 0.0 0.00 0.00 0.00 53 1014.7
20260504032624 47 157 0.0 0.0 0.00 0.00 0.00 53 1014.7
20260504031623 48 157 0.0 0.0 0.00 0.00 0.00 54 1014.6
20260504030624 47 157 0.0 0.0 0.00 0.00 0.00 53 1014.5
20260504025622 47 157 0.0 0.0 0.00 0.00 0.00 55 1014.5
20260504023623 48 157 0.0 0.0 0.00 0.00 0.00 54 1014.4
20260504022624 48 157 0.0 0.0 0.00 0.00 0.00 54 1014.5
20260504021621 48 157 0.0 0.0 0.00 0.00 0.00 55 1014.4
20260504020622 48 157 0.0 0.0 0.00 0.00 0.00 54 1014.4
20260504015622 48 157 0.0 0.0 0.00 0.00 0.00 54 1014.4
20260504013723 49 157 0.0 0.0 0.00 0.00 0.00 56 1014.3
20260504012723 49 157 0.0 0.0 0.00 0.00 0.00 55 1014.3
20260504011725 50 157 0.0 0.0 0.00 0.00 0.00 53 1014.2
20260504010722 50 157 0.0 0.0 0.00 0.00 0.00 52 1014.3
20260504005722 51 157 0.0 0.0 0.00 0.00 0.00 51 1014.2
20260504003823 52 157 0.0 0.0 0.00 0.00 0.00 50 1014.1
20260504002825 53 157 0.0 0.0 0.00 0.00 0.00 49 1013.9
20260504001922 53 157 0.0 0.0 0.00 0.00 0.00 47 1013.9
20260504000922 54 157 0.0 0.0 0.00 0.00 0.00 45 1013.8
20260503235923 55 157 0.0 0.0 0.00 0.00 0.00 42 1013.8
20260503235021 55 157 0.0 0.0 0.00 0.00 0.00 40 1013.7
20260503234023 56 157 0.0 0.0 0.00 0.00 0.00 39 1013.4
20260503233022 56 157 0.0 0.0 0.00 0.00 0.00 38 1013.4
20260503232022 57 157 0.0 0.0 0.00 0.00 0.00 37 1013.2
20260503231022 57 157 0.0 0.0 0.00 0.00 0.00 37 1013.3
20260503230022 57 157 0.0 0.0 0.00 0.00 0.00 36 1013.5
20260503225023 57 157 0.0 0.0 0.00 0.00 0.00 36 1013.5
20260503224022 58 157 0.0 0.0 0.00 0.00 0.00 35 1013.3
20260503223023 58 157 0.0 0.0 0.00 0.00 0.00 35 1013.4
20260503222024 58 157 0.0 0.0 0.00 0.00 0.00 35 1013.5
20260503221022 58 157 0.0 0.0 0.00 0.00 0.00 35 1013.4
20260503220023 58 157 0.0 0.0 0.00 0.00 0.00 35 1013.4
20260503215022 58 157 0.0 0.0 0.00 0.00 0.00 35 1013.5
20260503214023 58 157 0.0 0.0 0.00 0.00 0.00 34 1013.6
20260503213022 59 157 0.0 0.0 0.00 0.00 0.00 36 1013.5
20260503212023 59 157 0.0 0.0 0.00 0.00 0.00 35 1013.4
20260503211023 58 157 0.0 0.0 0.00 0.00 0.00 36 1013.4
20260503205122 58 157 0.0 0.0 0.00 0.00 0.00 35 1013.3
20260503204123 58 157 0.0 0.0 0.00 0.00 0.00 35 1013.4
20260503203122 58 157 0.0 0.0 0.00 0.00 0.00 35 1013.4
20260503202122 59 157 0.0 0.0 0.00 0.00 0.00 35 1013.7
20260503201124 59 157 0.0 0.0 0.00 0.00 0.00 36 1013.4
20260503200122 58 157 0.0 0.0 0.00 0.00 0.00 35 1013.8
20260503194124 58 157 0.0 0.0 0.00 0.00 0.00 35 1013.9
20260503192124 57 157 0.0 0.0 0.00 0.00 0.00 35 1014.1
20260503190222 57 157 0.0 0.0 0.00 0.00 0.00 36 1014.4
20260503185221 58 157 0.0 0.0 0.00 0.00 0.00 36 1014.5
20260503184223 57 157 0.0 0.0 0.00 0.00 0.00 36 1014.6
20260503183224 58 157 0.0 0.0 0.00 0.00 0.00 37 1015.0
20260503182224 58 157 0.0 0.0 0.00 0.00 0.00 39 1015.0
20260503181223 57 157 0.0 0.0 0.00 0.00 0.00 38 1015.0
20260503180223 57 157 0.0 0.0 0.00 0.00 0.00 39 1014.9
20260503175223 57 157 0.0 0.0 0.00 0.00 0.00 39 1015.2
20260503174223 56 157 0.0 0.0 0.00 0.00 0.00 39 1015.0
20260503173322 56 157 0.0 0.0 0.00 0.00 0.00 38 1015.1
20260503172324 56 157 0.0 0.0 0.00 0.00 0.00 37 1015.2
20260503171421 56 157 0.0 0.0 0.00 0.00 0.00 39 1015.3
20260503170423 55 157 0.0 0.0 0.00 0.00 0.00 39 1015.3
20260503150422 51 157 0.0 0.0 0.00 0.00 0.00 41 1016.2
20260503130722 47 157 0.0 0.0 0.00 0.00 0.00 46 1016.4
20260503100224 38 157 0.0 0.0 0.00 0.00 0.00 63 1014.2
20260503090421 39 157 0.0 0.0 0.00 0.00 0.00 63 1013.7
20260503080722 41 157 0.0 0.0 0.00 0.00 0.00 63 1013.6
20260503072823 43 157 0.0 0.0 0.00 0.00 0.00 64 1013.1
20260503071822 43 157 0.0 0.0 0.00 0.00 0.00 64 1013.1